SCP
0 0 0 0 0 0 0 0 0 0 0 0 0 0 0 0 0 1 1 1 1 1 1 1 1 1 1 1 1 1 1 1 1 1 0 0 0 0 0 0 0 0 0 0
0 0 0 0 0 0 0 0 0 0 0 0 0 0 0 0 0 1 1 1 1 1 1 1 1 1 1 1 1 1 1 1 1 1 1 0 0 0 0 0 0 0 0 0
0 0 0 0 0 0 0 0 0 0 0 0 0 0 0 0 0 0 1 1 1 1 1 1 1 1 1 1 1 1 1 1 1 1 1 1 0 0 0 0 0 0 0 0
0 0 0 0 0 0 0 0 0 0 0 0 0 0 0 0 0 0 1 1 1 1 1 1 1 1 1 1 1 1 1 1 1 1 1 1 1 0 0 0 0 0 0 0
0 0 0 0 0 0 0 0 0 0 0 0 0 0 0 0 0 0 1 1 1 1 1 1 1 1 1 1 1 1 1 1 1 1 1 1 1 0 0 0 0 0 0 0
0 0 0 0 0 0 0 0 0 0 0 0 0 0 0 0 0 0 1 1 1 1 1 1 1 1 1 1 1 1 1 1 1 1 1 1 1 0 0 0 0 0 0 0
0 0 0 0 0 0 0 0 0 0 0 0 0 0 0 0 0 0 1 1 1 1 1 1 1 1 1 1 1 1 1 1 1 1 1 1 1 1 0 0 0 0 0 0
0 0 0 0 0 0 0 0 0 0 0 0 0 0 0 0 0 0 1 1 1 1 1 1 1 1 1 1 1 1 1 1 1 1 1 1 1 1 0 0 0 0 0 0
0 0 0 0 0 0 0 0 0 0 0 0 0 0 0 0 0 0 1 1 1 1 1 1 1 1 1 1 1 1 1 1 1 1 1 1 1 1 1 0 0 0 0 0
0 0 0 0 0 0 0 0 0 0 0 0 0 0 0 0 0 1 1 1 1 1 1 1 1 1 1 1 1 1 1 1 1 1 1 1 1 1 1 1 0 0 0 0
0 0 0 0 0 0 0 0 0 0 0 0 0 0 0 0 0 0 1 1 1 1 1 1 1 1 1 1 1 1 1 1 1 1 1 1 1 1 1 1 0 0 0 0
0 0 0 0 0 0 0 0 0 0 0 0 0 0 0 0 0 1 1 1 1 1 1 1 1 1 1 1 1 1 1 1 1 1 1 1 1 1 1 0 0 0 0 0
0 0 0 0 0 0 0 0 0 0 0 0 0 0 0 0 1 1 1 1 2 2 1 1 1 1 1 1 1 1 1 1 1 1 1 1 1 1 0 0 -0 -0 0 0
0 0 0 0 0 0 0 0 0 0 0 0 0 0 0 1 1 1 2 2 2 2 2 1 1 1 1 1 1 1 1 1 1 1 1 1 1 0 0 0 -0 -0 0 0
0 0 0 0 0 0 0 0 0 0 0 0 0 0 0 1 1 2 2 2 2 2 1 1 1 1 1 1 1 1 1 1 1 1 1 0 0 0 0 0 0 0 0 0
0 0 0 0 0 0 0 0 0 0 0 0 0 0 0 1 1 2 2 2 1 1 1 1 1 1 1 1 1 1 1 1 1 1 0 0 0 0 0 0 0 0 0 0
0 0 0 0 0 0 0 0 0 0 0 0 0 0 0 1 1 2 2 2 1 1 1 1 1 1 1 1 1 1 1 1 1 0 0 0 0 0 0 0 0 0 0 0
0 0 0 0 0 0 0 0 0 0 0 0 0 1 1 1 2 2 2 2 1 1 1 1 1 1 1 1 1 1 1 1 1 0 0 0 0 0 0 0 0 0 0 0
0 0 0 0 0 0 0 0 0 0 0 0 1 1 1 2 2 2 2 1 1 1 1 1 1 1 1 1 1 1 1 1 1 0 0 0 0 0 0 0 0 0 0 0
0 0 0 0 0 0 0 0 0 0 0 0 1 1 1 2 2 2 2 2 2 2 2 2 2 1 1 1 1 1 1 1 1 0 0 0 0 0 0 0 0 0 0 0
0 0 0 0 0 0 0 0 0 0 0 1 1 1 1 2 2 2 2 2 2 2 2 2 2 1 1 1 1 1 1 1 1 0 0 0 0 0 0 0 0 0 0 0
0 0 0 0 0 0 0 1 0 0 1 1 1 1 2 2 2 2 2 2 2 2 2 1 1 1 1 1 1 1 1 1 1 0 0 0 0 0 0 0 0 0 0 0
0 0 0 0 0 0 0 1 1 1 1 1 1 2 2 3 3 3 2 2 2 2 1 1 1 1 1 1 1 1 1 1 0 0 0 0 0 0 0 0 0 0 0 0
0 0 0 0 0 1 1 1 1 1 1 1 2 2 2 3 3 2 2 2 2 1 1 1 1 1 1 1 1 1 1 1 0 0 0 0 0 0 0 0 0 0 0 0
0 0 0 0 1 1 1 1 1 1 1 1 2 2 2 3 2 2 2 2 1 1 1 1 1 1 1 1 1 1 0 0 0 0 0 0 0 0 0 0 0 0 0 0
0 0 0 0 0 1 1 1 1 1 1 1 2 2 2 2 2 2 2 1 1 1 1 1 1 1 1 1 1 1 0 0 0 0 0 0 0 0 0 0 0 0 0 0
Wind_Speed
1 3 3 7 6 6 3 2 3 4 3 5 7 8 10 11 10 11 11 11 11 11 9 10 11 11 10 9 8 8 8 7 5 3 2 2 2 1 1 2 4 4 4 5
3 5 10 7 5 4 3 2 3 2 1 3 5 4 6 10 12 13 15 14 13 9 8 9 10 11 11 10 9 8 8 7 6 4 3 2 2 2 2 2 1 3 3 4
6 8 6 5 5 4 3 3 3 3 2 4 5 2 2 6 6 7 11 12 13 14 13 12 11 11 10 10 10 9 7 7 6 5 3 1 1 1 0 1 1 2 2 3
6 9 6 5 5 4 5 4 3 2 3 1 3 2 6 5 4 7 9 10 12 12 11 10 10 10 12 11 9 8 7 7 6 6 4 4 3 3 3 2 2 2 3 3
6 5 5 6 7 4 6 3 2 2 4 2 2 3 7 2 4 7 9 12 13 12 12 12 11 11 10 9 8 7 6 6 6 6 6 5 3 3 2 1 1 2 3 3
7 6 5 7 6 4 2 4 7 6 6 1 4 3 6 5 10 9 8 10 11 12 12 12 10 8 7 7 7 7 6 5 6 6 5 5 5 3 2 2 2 2 2 3
5 6 5 3 2 2 5 7 5 5 5 5 4 2 9 8 9 10 10 9 9 10 11 10 10 9 9 9 8 7 7 6 5 5 5 5 5 4 4 3 3 2 2 2
4 7 6 4 7 6 5 11 9 5 5 5 3 4 8 5 5 7 8 8 9 9 9 11 11 10 10 10 9 8 8 6 6 5 5 4 4 3 2 2 2 2 2 2
7 7 6 6 6 9 5 5 9 8 2 0 4 5 6 2 2 5 7 8 8 9 10 10 9 8 8 8 7 8 8 6 6 6 5 4 4 3 3 2 1 1 1 1
6 4 6 5 2 3 8 8 7 6 4 2 4 3 4 3 5 5 6 8 8 8 9 10 8 8 7 7 6 6 6 6 4 4 4 4 3 3 2 2 1 1 0 1
7 4 6 2 5 7 4 4 6 5 6 7 2 7 7 8 8 8 7 8 9 8 9 10 9 8 8 7 7 6 6 5 4 4 3 3 2 2 2 1 1 1 1 1
8 6 4 7 7 7 8 8 9 6 4 5 4 8 7 5 6 8 8 8 9 8 9 9 9 8 7 7 6 6 5 5 4 4 4 3 3 3 3 2 1 1 1 2
8 7 2 6 7 1 3 5 6 7 6 5 5 7 4 3 5 7 9 9 9 9 9 8 8 7 7 6 6 5 5 5 4 4 5 4 3 3 3 3 2 2 2 2
8 7 8 10 8 4 3 3 5 7 5 5 6 5 2 3 6 6 7 8 9 9 10 8 7 7 6 6 6 5 5 5 5 5 5 4 4 4 4 3 3 2 2 3
7 6 5 6 6 3 3 4 4 6 9 9 7 7 8 9 10 10 9 9 10 10 9 9 8 7 6 6 6 6 6 5 5 6 5 4 4 4 4 4 3 3 3 4
5 5 4 1 2 2 1 3 4 5 6 6 6 5 7 7 7 9 10 12 11 10 9 9 9 8 7 7 7 7 6 5 6 6 5 5 5 5 4 4 4 4 4 4
3 5 5 2 1 2 3 5 4 3 3 7 8 8 6 8 10 11 11 10 11 10 9 9 9 9 8 8 8 7 7 6 6 6 6 5 5 5 5 5 5 5 4 5
5 4 4 3 3 4 9 5 4 4 1 3 6 7 9 11 9 6 8 11 10 9 9 8 7 7 7 7 7 7 7 7 7 6 5 5 5 6 5 5 5 5 5 6
6 7 4 4 3 3 5 3 3 5 2 2 7 7 8 10 9 4 3 7 8 8 8 7 7 8 8 8 8 9 7 6 7 6 5 5 6 6 6 6 5 5 6 6
5 7 6 5 4 5 6 6 2 6 1 4 6 10 10 9 6 4 4 7 8 7 7 7 7 8 8 7 8 9 7 7 6 6 5 5 5 6 6 6 5 5 5 5
3 4 4 4 3 5 6 6 3 4 7 4 5 9 9 7 7 8 7 8 8 8 8 8 9 8 7 7 8 8 7 6 6 6 6 6 5 5 6 5 5 5 5 5
5 4 4 5 3 7 5 3 3 6 4 2 4 7 9 9 10 9 9 9 9 8 8 8 8 6 6 6 8 8 7 6 7 7 7 6 5 5 5 5 5 5 5 6
3 6 6 6 6 5 1 2 2 3 4 3 5 7 11 12 11 10 9 8 8 8 7 7 8 7 6 6 8 8 7 8 8 8 7 6 6 5 4 5 5 4 4 4
4 2 3 2 0 1 2 3 3 3 4 4 7 10 12 12 11 10 9 8 7 7 7 7 8 7 6 5 6 7 8 8 9 8 7 6 7 6 5 4 3 3 3 4
3 2 3 2 0 3 5 4 3 4 6 8 8 9 11 12 11 10 8 7 6 6 6 7 7 7 6 6 6 6 8 9 9 8 7 6 6 6 5 5 4 3 1 2
2 1 2 2 3 2 2 2 3 6 6 7 9 8 8 9 10 10 8 6 6 6 6 7 7 7 6 7 7 6 7 9 10 8 6 5 5 4 5 5 5 9 6 6
Wind_Direction
286 79 233 234 211 204 225 249 246 245 207 129 152 173 187 185 186 185 189 189 188 192 188 175 174 173 167 168 168 169 166 172 162 152 156 165 196 208 215 214 208 203 202 199
24 255 238 240 251 236 241 279 272 285 271 124 148 172 192 187 193 191 190 187 184 180 180 178 175 173 172 174 175 174 173 173 170 168 166 171 177 202 214 226 203 203 203 204
203 241 240 239 252 255 268 218 217 223 347 42 88 16 224 218 212 202 195 188 182 182 187 184 181 181 175 178 178 179 178 171 172 167 150 141 95 345 281 248 221 227 223 227
237 249 250 239 239 211 256 239 179 158 100 269 123 193 265 222 221 202 196 189 188 187 182 183 184 183 181 183 178 168 168 169 171 165 162 164 176 204 223 215 218 235 234 234
243 236 226 227 230 209 229 222 139 126 119 38 24 134 273 226 208 217 203 194 191 185 176 180 187 189 183 176 171 162 161 173 173 170 175 180 196 210 218 210 220 249 256 251
246 258 222 216 229 210 189 51 32 43 67 11 249 161 266 220 206 205 203 190 186 179 174 174 172 167 162 160 161 156 162 177 178 175 179 186 194 203 209 212 218 249 260 262
285 283 261 218 223 330 107 90 41 7 16 257 260 164 244 236 206 188 184 179 174 171 169 164 161 163 160 158 162 165 171 178 182 183 184 188 189 191 200 209 217 237 255 266
207 267 249 211 181 183 170 136 150 178 208 273 320 225 254 249 199 166 159 154 154 161 162 164 169 169 166 167 167 168 173 180 181 188 192 187 184 189 203 208 209 222 232 248
189 244 262 225 188 158 156 168 163 137 159 327 290 288 310 17 117 137 136 134 148 158 161 164 164 161 161 165 167 169 172 174 177 186 184 180 183 187 196 203 200 218 251 264
173 234 275 254 184 177 162 153 100 112 141 232 291 277 242 220 176 158 142 139 145 158 162 157 151 152 152 154 147 155 159 167 167 171 176 179 187 189 186 174 171 182 282 0
173 191 288 330 188 196 160 133 118 126 151 151 218 266 233 199 182 167 161 150 147 153 154 150 151 154 149 145 146 152 156 153 153 160 161 153 156 153 148 143 161 126 61 51
175 149 233 254 247 194 171 173 145 150 205 160 163 264 270 184 169 147 146 145 142 146 147 143 143 139 138 140 143 147 150 154 156 150 140 132 120 114 110 103 97 91 70 55
159 137 169 323 327 311 176 172 155 138 130 150 159 259 307 96 114 127 134 140 140 142 137 131 131 134 135 136 136 139 141 142 133 126 121 115 110 108 103 89 85 89 83 68
137 130 163 194 213 209 205 203 161 131 152 191 203 221 275 147 135 133 132 135 141 140 136 136 135 134 135 135 136 140 132 131 124 117 116 115 117 113 108 99 87 85 88 84
123 154 176 196 208 185 197 213 198 176 178 177 206 197 208 185 162 153 143 140 137 140 143 145 141 138 139 136 133 132 128 126 123 114 112 114 111 104 97 88 78 73 75 79
91 143 148 205 229 172 224 236 221 202 184 178 168 211 213 178 145 139 146 146 146 149 148 147 145 144 144 143 139 134 128 124 117 115 115 109 103 97 91 87 80 76 71 72
86 111 118 201 295 78 257 231 212 208 202 167 183 207 167 150 155 159 155 150 151 152 149 150 150 150 150 149 143 137 129 122 115 113 111 107 106 102 97 95 85 78 73 73
124 101 118 128 102 207 243 243 162 149 208 170 166 173 166 163 159 152 149 147 147 147 146 149 146 142 141 135 130 124 118 120 119 116 114 110 108 105 99 96 92 85 80 80
137 129 114 119 153 262 292 297 170 153 239 207 160 153 143 127 91 61 122 142 149 148 144 143 143 138 135 134 132 124 123 125 123 121 118 116 118 116 110 105 100 93 91 84
85 106 113 120 144 212 249 283 262 113 260 271 153 150 145 122 123 192 168 131 126 124 126 124 124 122 129 139 135 128 131 130 127 125 119 114 117 118 117 115 106 95 94 94
71 72 119 137 171 249 258 296 54 133 219 238 158 150 143 143 163 161 138 123 122 122 121 119 121 125 135 139 132 128 128 131 128 118 112 109 109 111 114 109 105 106 101 96
160 152 167 142 166 246 291 20 126 203 208 161 138 137 128 123 119 123 125 124 122 119 118 118 120 120 121 126 127 126 127 128 122 117 114 109 104 108 109 107 107 109 111 103
170 182 175 173 199 231 261 142 193 160 130 127 131 129 123 121 125 127 125 125 123 122 120 118 120 117 114 121 129 130 133 128 122 116 113 107 95 84 92 107 114 115 114 112
323 19 100 92 334 340 30 50 42 81 111 111 122 125 123 124 127 123 123 124 122 120 121 120 117 118 117 117 122 130 132 127 121 117 113 107 99 84 69 70 81 101 112 120
306 358 62 89 169 35 18 21 43 73 90 95 103 113 119 123 126 126 125 126 123 119 121 123 123 125 126 121 120 125 130 126 121 120 116 108 102 101 84 69 54 72 77 155
319 98 126 201 232 157 242 319 73 92 101 112 111 104 112 125 128 125 124 125 125 125 124 122 121 123 126 128 128 130 132 130 130 129 127 123 119 115 114 110 80 49 57 73